Location: Ash Swamp
(41.5170°N, 74.6157°W)
Time: 02:42:14
(UTC+00:00)

Resurs 01 Rocket - Pass Details

Date: 14 July 2020
Orbit: 635 x 643 km, 98.0° (Epoch: 14 August)

Event Time Altitude Azimuth Distance (km) Brightness Sun altitude
Exits shadow 01:31:16 - 166° (SSE) 2,205 3.9 -9.9°
Reaches altitude 10° 01:31:44 10° 166° (SSE) 2,017 3.7 -10.0°
Maximum altitude 01:36:08 89° 257° (WSW) 642 1.6 -10.6°
Drops below altitude 10° 01:40:34 10° 347° (NNW) 2,030 5.1 -11.2°
Sets 01:42:46 0° 348° (NNW) 2,942 6.0 -11.5°
